User: anonymous   Login
Location: Allison Elementary School
(34.0784°N, 117.7317°W)
Time: 22:07:26
(UTC+00:00)
Language:

Cosmos 1607 - Orbit

View from above orbital plane
View from above orbital plane
View from above satellite
View from above satellite

Ground track
Ground track

The orbit data is extracted from the following two-line orbital elements,

1 15378U 84112A   20027.22733692 -.00000084 +00000-0 +41862-5 0  9994
2 15378 064.9937 340.5527 0035407 017.6358 342.5922 13.83564332782203
Epoch (UTC): 27 January 2020 05:27:21
Eccentricity: 0.0035407
inclination: 64.9937°
perigee height: 925 km
apogee height: 977 km
right ascension of ascending node: 340.5527°
argument of perigee: 17.6358°
revolutions per day: 13.83564332
mean anomaly at epoch: 342.5922°
orbit number at epoch: 78220

The dashed part of the orbit path shows where the satellite is in the earth's shadow,  

DLR